Morris, MN

12:36 AM CDT on May 27, 2018 (GMT -0500)
Morris Municipal

Weather History for KMOX - January, 2014

Change the Weather History Date:

Saturday, January 4, 2014

  Actual Average Record
Temperature  
Mean Temperature 8 °F -  
Max Temperature 23 °F 19 °F 46 °F (2012)
Min Temperature -7 °F 4 °F -18 °F (1999)
Degree Days  
Heating Degree Days 57    
Moisture  
Dew Point -2 °F    
Average Humidity 75    
Maximum Humidity 86    
Minimum Humidity 61    
Precipitation  
Precipitation 0.00 in - - ()
Sea Level Pressure  
Sea Level Pressure 29.98 in    
Wind  
Wind Speed 27 mph (NNW)    
Max Wind Speed 39 mph    
Max Gust Speed 53 mph    
Visibility 8 miles    
Events Snow    
Averages and records for this station are not official NWS values.
T = Trace of Precipitation, MM = Missing Value Source: NWS Daily Summary

Daily Weather History Graph

Daily Weather History Graph

Search for Another Location

Airport or City:

Astronomy

Jan. 04, 2014 Rise Set
Actual Time 8:04 AM CST 4:53 PM CST
Civil Twilight 7:30 AM CST 5:27 PM CST
Nautical Twilight 6:52 AM CST 6:05 PM CST
Astronomical Twilight 6:16 AM CST 6:41 PM CST
Moon 9:58 AM CST (1/4) 9:28 PM CST (1/4)
Length of Visible Light 9h 57m
Length of Day
8h 49m
Waxing Crescent, 15% of the Moon is Illuminated
Jan 4
Waxing Crescent
Jan 7
First Quarter
Jan 15
Full
Jan 23
Last Quarter
Jan 30
New

Hourly Weather History & Observations

Time (CST) Temp. Windchill Dew Point Humidity Pressure Visibility Wind Dir Wind Speed Gust Speed Precip Events Conditions
12:01 AM 23.0 °F 4.4 °F 17.6 °F 80% 29.40 in 2.5 mi NW 34.5 mph 40.3 mph N/A   Haze
12:21 AM 19.4 °F -0.0 °F 15.8 °F 86% 29.44 in 2.5 mi NW 32.2 mph 38.0 mph N/A   Overcast
12:41 AM 17.6 °F -3.3 °F 12.2 °F 79% 29.46 in 2.0 mi NW 35.7 mph 42.6 mph N/A   Overcast
1:01 AM 15.8 °F -6.3 °F 10.4 °F 79% 29.50 in 1.5 mi NW 38.0 mph 47.2 mph N/A Snow Light Snow
1:21 AM 14.0 °F -8.8 °F 10.4 °F 86% 29.52 in 2.0 mi NW 38.0 mph 43.7 mph N/A Snow Light Snow
1:41 AM 12.2 °F -10.8 °F 8.6 °F 85% 29.54 in 2.0 mi NW 35.7 mph 46.0 mph N/A Snow Light Snow
2:01 AM 12.2 °F -11.3 °F 8.6 °F 85% 29.57 in 1.5 mi NW 38.0 mph 48.3 mph N/A Snow Light Snow
2:21 AM 10.4 °F -13.0 °F 6.8 °F 85% 29.59 in 1.8 mi NNW 34.5 mph 43.7 mph N/A Snow Light Snow
2:41 AM 10.4 °F -12.0 °F 6.8 °F 85% 29.63 in 2.5 mi NNW 31.1 mph 46.0 mph N/A   Scattered Clouds
3:01 AM 8.6 °F -15.1 °F 3.2 °F 79% 29.63 in 5.0 mi NNW 33.4 mph 44.9 mph N/A   Haze
3:21 AM 8.6 °F -14.1 °F 5.0 °F 85% 29.67 in 1.2 mi NW 29.9 mph 38.0 mph N/A   Mostly Cloudy
3:41 AM 8.6 °F -14.8 °F 3.2 °F 79% 29.69 in 2.0 mi NW 32.2 mph 38.0 mph N/A   Mostly Cloudy
4:01 AM 8.6 °F -14.1 °F 3.2 °F 79% 29.71 in 2.5 mi NNW 29.9 mph 40.3 mph N/A Snow Light Snow
4:21 AM 8.6 °F -14.1 °F 5.0 °F 85% 29.72 in 1.2 mi NNW 29.9 mph 40.3 mph N/A Snow Light Snow
4:41 AM 8.6 °F -14.5 °F 5.0 °F 85% 29.74 in 1.2 mi NNW 31.1 mph 35.7 mph N/A Snow Light Snow
5:01 AM 8.6 °F -15.4 °F 5.0 °F 85% 29.76 in 2.0 mi NNW 34.5 mph 46.0 mph N/A Snow Light Snow
5:21 AM 10.4 °F -14.1 °F 5.0 °F 79% 29.79 in 5.0 mi NNW 39.1 mph 47.2 mph N/A   Haze
5:41 AM 10.4 °F -13.0 °F 5.0 °F 79% 29.81 in 2.5 mi NNW 34.5 mph 52.9 mph N/A   Haze
6:01 AM 8.6 °F -13.8 °F 5.0 °F 85% 29.83 in 3.0 mi NNW 28.8 mph 39.1 mph N/A   Overcast
6:21 AM 8.6 °F -13.8 °F 3.2 °F 79% 29.85 in 7.0 mi NNW 28.8 mph 36.8 mph N/A   Overcast
6:41 AM 8.6 °F -11.9 °F 3.2 °F 79% 29.87 in 5.0 mi NNW 23.0 mph 33.4 mph N/A   Haze
7:01 AM 8.6 °F -12.7 °F 1.4 °F 73% 29.89 in 10.0 mi NNW 25.3 mph 33.4 mph N/A   Scattered Clouds
7:21 AM 8.6 °F -11.9 °F 1.4 °F 73% 29.91 in 10.0 mi NNW 23.0 mph 28.8 mph N/A   Clear
7:41 AM 6.8 °F -14.7 °F 1.4 °F 79% 29.92 in 10.0 mi NNW 24.2 mph - N/A   Clear
8:01 AM 6.8 °F -14.3 °F -0.4 °F 72% 29.93 in 10.0 mi NNW 23.0 mph 34.5 mph N/A   Clear
8:21 AM 6.8 °F -14.7 °F -0.4 °F 72% 29.94 in 10.0 mi North 24.2 mph 32.2 mph N/A   Clear
8:41 AM 6.8 °F -14.7 °F -0.4 °F 72% 29.95 in 10.0 mi NNW 24.2 mph 31.1 mph N/A   Clear
9:01 AM 6.8 °F -13.8 °F -0.4 °F 72% 29.96 in 10.0 mi NNW 21.9 mph - N/A   Clear
9:21 AM 6.8 °F -15.1 °F -0.4 °F 72% 29.97 in 10.0 mi North 25.3 mph 29.9 mph N/A   Clear
9:41 AM 6.8 °F -14.7 °F -0.4 °F 72% 29.98 in 10.0 mi North 24.2 mph 31.1 mph N/A   Clear
10:01 AM 6.8 °F -15.1 °F -0.4 °F 72% 29.98 in 10.0 mi NNW 25.3 mph - N/A   Clear
10:21 AM 6.8 °F -13.8 °F -2.2 °F 67% 29.99 in 10.0 mi NNW 21.9 mph 26.5 mph N/A   Clear
10:41 AM 6.8 °F -13.8 °F -4.0 °F 61% 30.00 in 10.0 mi NNW 21.9 mph - N/A   Clear
11:01 AM 3.2 °F -21.5 °F -5.8 °F 66% 30.00 in 7.0 mi North 29.9 mph 35.7 mph N/A   Clear
11:21 AM 5.0 °F -16.7 °F -4.0 °F 66% 30.01 in 10.0 mi North 23.0 mph 27.6 mph N/A   Clear
11:41 AM 5.0 °F -17.9 °F -4.0 °F 66% 30.01 in 10.0 mi NNW 26.5 mph 33.4 mph N/A   Clear
12:01 PM 3.2 °F -18.6 °F -4.0 °F 72% 30.03 in 10.0 mi NNW 21.9 mph 31.1 mph N/A   Clear
12:21 PM 5.0 °F -16.2 °F -2.2 °F 72% 30.04 in 10.0 mi NNW 21.9 mph - N/A   Clear
12:41 PM 5.0 °F -16.7 °F -4.0 °F 66% 30.05 in 10.0 mi NNW 23.0 mph 31.1 mph N/A   Clear
1:01 PM 5.0 °F -15.2 °F -4.0 °F 66% 30.07 in 10.0 mi NNW 19.6 mph 24.2 mph N/A   Clear
1:21 PM 5.0 °F -14.7 °F -4.0 °F 66% 30.07 in 10.0 mi NNW 18.4 mph - N/A   Clear
1:41 PM 3.2 °F -18.1 °F -4.0 °F 72% 30.07 in 10.0 mi NNW 20.7 mph 24.2 mph N/A   Clear
2:01 PM 3.2 °F -16.5 °F -4.0 °F 72% 30.09 in 10.0 mi NNW 17.3 mph 24.2 mph N/A   Clear
2:21 PM 3.2 °F -17.1 °F -4.0 °F 72% 30.11 in 10.0 mi NNW 18.4 mph - N/A   Clear
2:41 PM 3.2 °F -15.3 °F -4.0 °F 72% 30.12 in 10.0 mi NW 15.0 mph - N/A   Clear
3:01 PM 3.2 °F -13.9 °F -4.0 °F 72% 30.14 in 10.0 mi NW 12.7 mph - N/A   Clear
3:21 PM 3.2 °F -15.3 °F -4.0 °F 72% 30.14 in 10.0 mi NNW 15.0 mph - N/A   Clear
3:41 PM 3.2 °F -13.1 °F -2.2 °F 78% 30.14 in 7.0 mi NNW 11.5 mph - N/A   Scattered Clouds
4:01 PM 3.2 °F -13.1 °F -2.2 °F 78% 30.15 in 10.0 mi NW 11.5 mph - N/A   Scattered Clouds
4:21 PM 1.4 °F -20.5 °F -5.8 °F 72% 30.15 in 10.0 mi NW 20.7 mph - N/A   Scattered Clouds
4:41 PM 1.4 °F -18.8 °F -5.8 °F 72% 30.15 in 10.0 mi NW 17.3 mph - N/A   Clear
5:01 PM -0.4 °F -19.9 °F -7.6 °F 72% 30.16 in 10.0 mi NW 15.0 mph - N/A   Clear
5:21 PM -0.4 °F -19.2 °F -7.6 °F 72% 30.17 in 10.0 mi NW 13.8 mph - N/A   Clear
5:41 PM -0.4 °F -20.5 °F -7.6 °F 72% 30.18 in 10.0 mi NW 16.1 mph - N/A   Clear
6:01 PM -2.2 °F -19.9 °F -9.4 °F 71% 30.19 in 10.0 mi NW 11.5 mph - N/A   Clear
6:21 PM -2.2 °F -22.9 °F -9.4 °F 71% 30.20 in 10.0 mi NW 16.1 mph - N/A   Clear
6:41 PM -2.2 °F -22.2 °F -9.4 °F 71% 30.21 in 10.0 mi NW 15.0 mph - N/A   Clear
7:01 PM -2.2 °F -22.2 °F -9.4 °F 71% 30.22 in 10.0 mi NW 15.0 mph - N/A   Clear
7:21 PM -4.0 °F -23.7 °F -11.2 °F 71% 30.23 in 10.0 mi NW 13.8 mph - N/A   Clear
7:41 PM -5.8 °F -23.4 °F -11.2 °F 77% 30.23 in 10.0 mi NW 10.4 mph - N/A   Clear
8:01 PM -5.8 °F -26.0 °F -11.2 °F 77% 30.24 in 10.0 mi NW 13.8 mph - N/A   Clear
8:21 PM -5.8 °F -26.0 °F -11.2 °F 77% 30.24 in 10.0 mi NW 13.8 mph - N/A   Clear
8:41 PM -5.8 °F -26.8 °F -11.2 °F 77% 30.24 in 10.0 mi NW 15.0 mph - N/A   Clear
9:01 PM -5.8 °F -27.5 °F -11.2 °F 77% 30.24 in 10.0 mi NW 16.1 mph - N/A   Clear
9:21 PM -5.8 °F -28.8 °F -13.0 °F 71% 30.23 in 10.0 mi NNW 18.4 mph 24.2 mph N/A   Clear
9:41 PM -5.8 °F -28.2 °F -14.8 °F 65% 30.25 in 10.0 mi NW 17.3 mph - N/A   Clear
10:01 PM -7.6 °F -28.3 °F -14.8 °F 71% 30.26 in 10.0 mi NW 13.8 mph - N/A   Clear
10:21 PM -7.6 °F -27.5 °F -14.8 °F 71% 30.27 in 10.0 mi NW 12.7 mph - N/A   Clear
10:41 PM -7.6 °F -28.3 °F -14.8 °F 71% 30.28 in 10.0 mi NW 13.8 mph - N/A   Clear
11:01 PM -7.6 °F -27.5 °F -14.8 °F 71% 30.27 in 10.0 mi NW 12.7 mph - N/A   Clear
11:21 PM -7.6 °F -29.1 °F -14.8 °F 71% 30.27 in 10.0 mi NW 15.0 mph - N/A   Clear
11:41 PM -7.6 °F -28.3 °F -14.8 °F 71% 30.27 in 10.0 mi NW 13.8 mph - N/A   Clear